Weather History for Amsterdam, Netherlands

Change the Weather History Date:

Monday, March 18, 2013

  Actual Average Record
Temperature  
Mean Temperature 42 °F -  
Max Temperature 48 °F 52 °F 55 °F (2003)
Min Temperature 37 °F 38 °F 30 °F (2006)
Degree Days  
Heating Degree Days 22    
Moisture  
Dew Point 37 °F    
Average Humidity 83    
Maximum Humidity 100    
Minimum Humidity 54    
Precipitation  
Precipitation 0.04 in - - ()
Sea Level Pressure  
Sea Level Pressure 29.29 in    
Wind  
Wind Speed 10 mph ()    
Max Wind Speed 20 mph    
Max Gust Speed -    
Visibility 6.3 miles    
Events Rain    
Averages and records for this station are not official NWS values.
T = Trace of Precipitation, MM = Missing Value Source: Averaged Metar Reports

Daily Weather History Graph

Daily Weather History Graph

Search for Another Location

Airport:

Trip Planner

Search our weather history database for the weather conditions in past years. The results will help you decide how hot, cold, wet, or windy it might be!

Date:

Astronomy

Mar. 18, 2013 Rise Set
Actual Time 6:47 AM CET 6:50 PM CET
Civil Twilight 6:14 AM CET 7:24 PM CET
Nautical Twilight 5:34 AM CET 8:04 PM CET
Astronomical Twilight 4:52 AM CET 8:46 PM CET
Moon 9:51 AM CET (3/18) 1:19 AM CET (3/18)
Length of Visible Light 13h 10m
Length of Day
12h 02m
Waxing Crescent, 38% of the Moon is Illuminated
Mar 18
Waxing Crescent
Mar 19
First Quarter
Mar 27
Full
Apr 3
Last Quarter
Apr 10
New

Hourly Weather History & Observations

Time (CET) Temp. Windchill Dew Point Humidity Pressure Visibility Wind Dir Wind Speed Gust Speed Precip Events Conditions
12:25 AM 39.2 °F 32.0 °F 39.2 °F 100% 29.27 in 2.8 mi ESE 11.5 mph - N/A Rain Light Rain
12:55 AM 39.2 °F 33.0 °F 39.2 °F 100% 29.27 in 2.5 mi SE 9.2 mph - N/A Rain Rain
1:00 AM 40 °F - 39 °F 93% 29.27 in 2 mi ESE 8.9 mph - - Rain Drizzle
1:25 AM 39.2 °F 33.0 °F 39.2 °F 100% 29.24 in 3.1 mi ESE 9.2 mph - N/A Rain Light Rain
1:55 AM 39.2 °F 33.0 °F 39.2 °F 100% 29.24 in 3.7 mi SE 9.2 mph - N/A Rain Light Rain
2:25 AM 41.0 °F 36.4 °F 39.2 °F 93% 29.24 in 4.3 mi SSE 6.9 mph - N/A Rain Light Rain
2:55 AM 41.0 °F 34.3 °F 39.2 °F 93% 29.24 in 4.3 mi SSE 11.5 mph - N/A Rain Light Rain
3:25 AM 39.2 °F 33.6 °F 39.2 °F 100% 29.24 in 6.2 mi South 8.1 mph - N/A   Mostly Cloudy
3:55 AM 41.0 °F 34.7 °F 39.2 °F 93% 29.21 in 6.2 mi South 10.4 mph - N/A   Mostly Cloudy
4:00 AM 40 °F - 38 °F 91% 29.24 in 6 mi South 11.2 mph - - Rain Rain
4:25 AM 41.0 °F 33.9 °F 35.6 °F 81% 29.21 in 6.2 mi South 12.7 mph - N/A   Mostly Cloudy
4:55 AM 39.2 °F 30.8 °F 35.6 °F 87% 29.24 in 6.2 mi SSW 15.0 mph - N/A   Light Drizzle
5:25 AM 39.2 °F 31.6 °F 37.4 °F 93% 29.24 in 6.2 mi SSW 12.7 mph - N/A   Light Drizzle
5:55 AM 39.2 °F 32.0 °F 37.4 °F 93% 29.24 in 4.3 mi South 11.5 mph - N/A   Light Drizzle
6:25 AM 39.2 °F 32.0 °F 37.4 °F 93% 29.24 in - South 11.5 mph - N/A Rain Light Drizzle
6:55 AM 39.2 °F 30.5 °F 37.4 °F 93% 29.24 in - SSW 16.1 mph - N/A Rain Light Rain
7:00 AM 38 °F - 38 °F 98% 29.26 in 3 mi SSW 15.7 mph - - Rain Light Rain
7:25 AM 39.2 °F 30.8 °F 37.4 °F 93% 29.24 in 2.8 mi SSW 15.0 mph - N/A Rain Rain
7:55 AM 39.2 °F 30.8 °F 37.4 °F 93% 29.24 in 3.7 mi SSW 15.0 mph - N/A Rain Rain
8:25 AM 39.2 °F 30.8 °F 37.4 °F 93% 29.27 in 3.7 mi SSW 15.0 mph - N/A   Light Drizzle
8:55 AM 39.2 °F 30.8 °F 37.4 °F 93% 29.27 in 5.0 mi SSW 15.0 mph - N/A   Light Drizzle
9:25 AM 39.2 °F 30.5 °F 37.4 °F 93% 29.27 in 6.2 mi SW 16.1 mph - N/A   Scattered Clouds
9:55 AM 42.8 °F 34.5 °F 37.4 °F 81% 29.27 in 6.2 mi SW 18.4 mph - N/A   Partly Cloudy
10:00 AM 42 °F - 36 °F 74% 29.30 in 12 mi SW 20.1 mph - - Rain Rain
10:25 AM 42.8 °F 35.4 °F 37.4 °F 81% 29.30 in 6.2 mi SSW 15.0 mph - N/A   Scattered Clouds
10:55 AM 44.6 °F 37.4 °F 37.4 °F 76% 29.30 in 6.2 mi SSW 16.1 mph - N/A   Partly Cloudy
11:25 AM 44.6 °F 38.1 °F 37.4 °F 76% 29.30 in 6.2 mi SSW 13.8 mph - N/A   Partly Cloudy
11:55 AM 46.4 °F 41.1 °F 37.4 °F 71% 29.30 in 6.2 mi SSW 11.5 mph - N/A   Partly Cloudy
12:25 PM 46.4 °F 41.1 °F 35.6 °F 66% 29.30 in 6.2 mi SSW 11.5 mph - N/A   Partly Cloudy
12:55 PM 48.2 °F - 35.6 °F 62% 29.30 in 6.2 mi SSW 10.4 mph - N/A   Partly Cloudy
1:00 PM 47 °F - 36 °F 54% 29.31 in 17 mi SSW 13.4 mph - -   Partly Cloudy
1:25 PM 48.2 °F - 37.4 °F 66% 29.30 in 6.2 mi SSW 11.5 mph - N/A   Partly Cloudy
1:55 PM 46.4 °F 41.9 °F 35.6 °F 66% 29.30 in 6.2 mi SW 9.2 mph - N/A   Mostly Cloudy
2:25 PM 46.4 °F 41.9 °F 37.4 °F 71% 29.30 in 6.2 mi SW 9.2 mph - N/A   Mostly Cloudy
2:55 PM 44.6 °F 39.7 °F 37.4 °F 76% 29.30 in 6.2 mi SW 9.2 mph - N/A   Mostly Cloudy
3:25 PM 46.4 °F 43.5 °F 37.4 °F 71% 29.30 in 6.2 mi WSW 5.8 mph - N/A   Scattered Clouds
3:55 PM 46.4 °F 44.3 °F 37.4 °F 71% 29.30 in 6.2 mi SSW 4.6 mph - N/A   Scattered Clouds
4:00 PM 46 °F - 38 °F 65% 29.31 in 18 mi South 2.2 mph - -   Overcast
4:25 PM 46.4 °F 44.3 °F 37.4 °F 71% 29.30 in 6.2 mi SSW 4.6 mph - N/A   Partly Cloudy
4:55 PM 46.4 °F - 37.4 °F 71% 29.30 in 6.2 mi Variable 1.2 mph - N/A   Mostly Cloudy
5:25 PM 46.4 °F - 37.4 °F 71% 29.30 in 6.2 mi Variable 1.2 mph - N/A Rain Light Rain Showers
5:55 PM 44.6 °F - 37.4 °F 76% 29.30 in 6.2 mi Variable 1.2 mph - N/A   Scattered Clouds
6:25 PM 44.6 °F 40.7 °F 39.2 °F 81% 29.33 in 6.2 mi NW 6.9 mph - N/A   Scattered Clouds
6:55 PM 42.8 °F 38.6 °F 37.4 °F 81% 29.33 in 6.2 mi North 6.9 mph - N/A   Partly Cloudy
7:00 PM 43 °F - 38 °F 76% 29.34 in 17 mi North 4.5 mph - -   Partly Cloudy
7:25 PM 42.8 °F 39.3 °F 37.4 °F 81% 29.33 in 6.2 mi North 5.8 mph - N/A   Partly Cloudy
7:55 PM 41.0 °F 37.1 °F 37.4 °F 87% 29.33 in - NNE 5.8 mph - N/A   Clear
8:25 PM 41.0 °F 36.4 °F 35.6 °F 81% 29.33 in - ENE 6.9 mph - N/A   Clear
8:55 PM 37.4 °F 32.1 °F 33.8 °F 87% 29.33 in - ENE 6.9 mph - N/A   Clear
9:25 PM 37.4 °F 32.1 °F 33.8 °F 87% 29.33 in - NE 6.9 mph - N/A   Clear
9:55 PM 37.4 °F 32.8 °F 33.8 °F 87% 29.33 in - NE 5.8 mph - N/A   Clear
10:00 PM 37 °F - 35 °F 87% 29.34 in 8 mi NE 6.7 mph - -   Partly Cloudy
10:25 PM 37.4 °F 30.8 °F 33.8 °F 87% 29.33 in - ENE 9.2 mph - N/A   Clear
10:55 PM 39.2 °F 32.0 °F 35.6 °F 87% 29.33 in - ENE 11.5 mph - N/A   Clear
11:25 PM 39.2 °F 32.0 °F 35.6 °F 87% 29.33 in - ENE 11.5 mph - N/A   Clear
11:55 PM 37.4 °F 31.4 °F 33.8 °F 87% 29.33 in - ENE 8.1 mph - N/A   Clear